Regional Weather Roundup
Issued by NWS

Home | Current Version | Previous Version | Graphics & Text | Print | Product List | Glossary On
Versions: 1 2 3 4 5 6 7 8 9 10 11 12 13 14 15 16 17 18 19 20 21 22 23 24 25 26 27 28 29 30 31 32 33 34 35 36 37 38 39 40 41 42 43 44 45 46 47 48 49 50
801
ASUS45 KSLC 230810
RWRUT

UTAH REGIONAL WEATHER ROUNDUP
NATIONAL WEATHER SERVICE SALT LAKE CITY UT
200 AM MDT MON APR 23 2018

UTZ001>011-023>025-230900-

NORTHERN UTAH

CITY           SKY/WX    TMP DP  RH WIND       PRES   REMARKS
BRIGHAM CITY   CLOUDY    58  32  36 N29       29.94F
HILL AFB       MOCLDY    59  39  48 N8        29.96S
LOGAN          CLOUDY    57  35  43 N32G39    30.04R
OGDEN          CLOUDY    58  38  47 MISG      29.95R
SALT LAKE CITY CLOUDY    64  33  31 CALM      29.92R
TOOELE VALLEY  CLOUDY    57  34  41 NW13      29.95R
WENDOVER       MOCLDY    59  32  36 N16G28    30.00R
HEBER CITY       N/A     43  32  65 E5        30.01S
WEST JORDAN    CLOUDY    60  36  39 SW7       29.94S

$$

UTZ011>015-024>027-230900-

CENTRAL/NORTHEAST UTAH

CITY           SKY/WX    TMP DP  RH WIND       PRES   REMARKS
PROVO AIRPORT  CLOUDY    57  32  38 E8        29.94F
MOAB/CANYONLAN MOCLDY    56  28  34 W3        29.97S
DELTA          PTCLDY    54  32  43 S12       29.96S
PRICE          PTCLDY    49  25  39 NE5       30.04S
RICHFIELD      CLEAR     45  32  61 CALM      30.03F
ROOSEVELT      PTCLDY    45  32  61 W5        30.02F
VERNAL         MOCLDY    53  34  48 W16       30.04R

$$

UTZ013>016-019>022-027-230900-

SOUTHERN UTAH

CITY           SKY/WX    TMP DP  RH WIND       PRES   REMARKS
BRYCE CANYON   PTCLDY    34  22  61 CALM      30.17S
CEDAR CITY     CLEAR     49  27  42 CALM      30.04S
MILFORD        PTCLDY    53  28  38 SW14      30.00R
ST GEORGE      PTSUNNY   64  24  21 E9        29.93R
HANKSVILLE     CLEAR     50  19  29 CALM      30.01R
KANAB          CLEAR     43  23  45 E1        30.10R
BLANDING         N/A     47  21  36 N8        30.14F

$$

REGIONAL REPORTS     COLORADO/ARIZONA

CITY           SKY/WX    TMP DP  RH WIND       PRES   REMARKS
CRAIG, CO      PTCLDY    36  32  85 CALM      30.08F
GRAND JUNCTION CLEAR     54  32  43 E14       30.01F
RIFLE, CO      PTCLDY    46  38  73 S5        30.08S
MONTROSE, CO   CLEAR     48  31  51 SE9       30.09F
CORTEZ, CO     CLEAR     36  20  52 E7        30.11S WCI  30
COLORADO CITY    N/A     43  27  52 SE6       30.07R
PAGE, AZ       CLEAR     61  26  26 CALM      29.99R
GRAND CANYON   CLEAR     35  17  47 CALM      30.17R
KINGMAN, AZ    CLEAR     64  20  18 S3        29.99S
FLAGSTAFF, AZ  CLEAR     39  16  39 CALM      30.20S

$$

REGIONAL REPORTS    NEVADA/IDAHO/WYOMING

CITY           SKY/WX    TMP DP  RH WIND       PRES   REMARKS
LAS VEGAS, NV  CLEAR     75  19  12 S6        29.87R
ELY, NY        CLEAR     51  29  42 W14       30.07R
ELKO, NV       PTCLDY    47  32  56 SW3       30.09R
POCATELLO, ID  LGT RAIN  47  43  86 SW12      30.12R
BURLEY, ID     CLOUDY    48  38  68 SW10      30.04F
FORT BRIDGER,    N/A     49  26  41 S12       30.08S
EVANSTON, WY   PTCLDY    46  24  42 SE9       30.04F
ROCK SPRINGS,  MOCLDY    48  26  42 S8        30.04F
KEMMERER, WY   CLEAR     36  27  69 N7        30.05F WCI  30

$$




USA.gov is the U.S. government's official web portal to all federal, state and local government web resources and services.